| time (UTC) | temp C | wind direction | speed KPH | gust KPH | rain 1hr cm | rain 24hr cm | rain mn cm | humidity % | barometer mb |
| 20260504050507 | 5 | 256 | 0.0 | 0.0 | 0.00 | 0.00 | 0.00 | 76 | 1013.7 |
| 20260504050018 | 5 | 256 | 0.0 | 0.0 | 0.00 | 0.00 | 0.00 | 76 | 1013.7 |
| 20260504045507 | 5 | 256 | 0.0 | 0.0 | 0.00 | 0.00 | 0.00 | 76 | 1013.7 |
| 20260504045012 | 5 | 256 | 0.0 | 0.0 | 0.00 | 0.00 | 0.00 | 75 | 1013.8 |
| 20260504044508 | 5 | 256 | 0.0 | 0.0 | 0.00 | 0.00 | 0.00 | 75 | 1013.8 |
| 20260504044011 | 5 | 256 | 0.0 | 0.0 | 0.00 | 0.00 | 0.00 | 73 | 1013.8 |
| 20260504043504 | 5 | 256 | 0.0 | 0.0 | 0.00 | 0.00 | 0.00 | 74 | 1013.7 |
| 20260504043010 | 5 | 256 | 0.0 | 0.0 | 0.00 | 0.00 | 0.00 | 75 | 1013.7 |
| 20260504042504 | 5 | 256 | 0.0 | 0.0 | 0.00 | 0.00 | 0.00 | 74 | 1013.7 |
| 20260504042006 | 5 | 256 | 0.0 | 0.0 | 0.00 | 0.00 | 0.00 | 74 | 1013.7 |
| 20260504041511 | 5 | 256 | 0.0 | 0.0 | 0.00 | 0.00 | 0.00 | 73 | 1013.7 |
| 20260504041007 | 6 | 256 | 0.0 | 0.0 | 0.00 | 0.00 | 0.00 | 73 | 1013.7 |
| 20260504040508 | 6 | 256 | 0.0 | 1.6 | 0.00 | 0.00 | 0.00 | 73 | 1013.7 |
| 20260504040018 | 6 | 256 | 0.0 | 1.6 | 0.00 | 0.00 | 0.00 | 73 | 1013.6 |
| 20260504035509 | 6 | 255 | 0.0 | 1.6 | 0.00 | 0.00 | 0.00 | 72 | 1013.6 |
| 20260504035006 | 6 | 255 | 0.0 | 1.6 | 0.00 | 0.00 | 0.00 | 72 | 1013.6 |
| 20260504034526 | 6 | 255 | 0.0 | 0.0 | 0.00 | 0.00 | 0.00 | 70 | 1013.6 |
| 20260504034006 | 6 | 255 | 0.0 | 0.0 | 0.00 | 0.00 | 0.00 | 71 | 1013.6 |
| 20260504033510 | 7 | 255 | 0.0 | 0.0 | 0.00 | 0.00 | 0.00 | 64 | 1013.6 |
| 20260504033024 | 7 | 255 | 0.0 | 1.6 | 0.00 | 0.00 | 0.00 | 66 | 1013.6 |
| 20260504032504 | 7 | 255 | 0.0 | 1.6 | 0.00 | 0.00 | 0.00 | 67 | 1013.5 |
| 20260504032005 | 7 | 255 | 0.0 | 1.6 | 0.00 | 0.00 | 0.00 | 63 | 1013.4 |
| 20260504031508 | 7 | 255 | 0.0 | 1.6 | 0.00 | 0.00 | 0.00 | 64 | 1013.4 |
| 20260504031006 | 7 | 255 | 0.0 | 1.6 | 0.00 | 0.00 | 0.00 | 66 | 1013.4 |
| 20260504030508 | 7 | 255 | 1.6 | 1.6 | 0.00 | 0.00 | 0.00 | 67 | 1013.5 |
| 20260504030033 | 8 | 307 | 0.0 | 0.0 | 0.00 | 0.00 | 0.00 | 62 | 1013.4 |
| 20260504025512 | 8 | 307 | 0.0 | 0.0 | 0.00 | 0.00 | 0.00 | 60 | 1013.4 |
| 20260504025007 | 8 | 307 | 0.0 | 0.0 | 0.00 | 0.00 | 0.00 | 60 | 1013.4 |
| 20260504024517 | 8 | 307 | 0.0 | 0.0 | 0.00 | 0.00 | 0.00 | 60 | 1013.4 |
| 20260504024007 | 8 | 307 | 0.0 | 0.0 | 0.00 | 0.00 | 0.00 | 60 | 1013.4 |
| 20260504023509 | 8 | 307 | 0.0 | 0.0 | 0.00 | 0.00 | 0.00 | 59 | 1013.4 |
| 20260504023026 | 8 | 307 | 0.0 | 0.0 | 0.00 | 0.00 | 0.00 | 58 | 1013.4 |
| 20260504022510 | 8 | 307 | 0.0 | 0.0 | 0.00 | 0.00 | 0.00 | 57 | 1013.4 |
| 20260504022011 | 8 | 307 | 0.0 | 0.0 | 0.00 | 0.00 | 0.00 | 57 | 1013.4 |
| 20260504021526 | 8 | 307 | 0.0 | 0.0 | 0.00 | 0.00 | 0.00 | 57 | 1013.4 |
| 20260504021007 | 8 | 307 | 0.0 | 0.0 | 0.00 | 0.00 | 0.00 | 57 | 1013.3 |
| 20260504020508 | 9 | 307 | 0.0 | 0.0 | 0.00 | 0.00 | 0.00 | 56 | 1013.2 |
| 20260504020012 | 9 | 307 | 0.0 | 0.0 | 0.00 | 0.00 | 0.00 | 57 | 1013.2 |
| 20260504015504 | 9 | 307 | 0.0 | 0.0 | 0.00 | 0.00 | 0.00 | 53 | 1013.2 |
| 20260504015007 | 9 | 307 | 0.0 | 0.0 | 0.00 | 0.00 | 0.00 | 56 | 1013.3 |
| 20260504014532 | 9 | 307 | 0.0 | 0.0 | 0.00 | 0.00 | 0.00 | 54 | 1013.2 |
| 20260504014010 | 9 | 307 | 0.0 | 0.0 | 0.00 | 0.00 | 0.00 | 55 | 1013.2 |
| 20260504013507 | 9 | 307 | 0.0 | 0.0 | 0.00 | 0.00 | 0.00 | 54 | 1013.2 |
| 20260504013018 | 9 | 307 | 0.0 | 0.0 | 0.00 | 0.00 | 0.00 | 54 | 1013.1 |
| 20260504012508 | 9 | 307 | 0.0 | 0.0 | 0.00 | 0.00 | 0.00 | 55 | 1013.1 |
| 20260504012010 | 9 | 307 | 0.0 | 0.0 | 0.00 | 0.00 | 0.00 | 55 | 1013.1 |
| 20260504011524 | 9 | 307 | 0.0 | 0.0 | 0.00 | 0.00 | 0.00 | 53 | 1013.0 |
| 20260504011009 | 9 | 307 | 0.0 | 0.0 | 0.00 | 0.00 | 0.00 | 53 | 1013.0 |
| 20260504010514 | 9 | 307 | 0.0 | 0.0 | 0.00 | 0.00 | 0.00 | 54 | 1012.9 |
| 20260504010028 | 10 | 307 | 0.0 | 0.0 | 0.00 | 0.00 | 0.00 | 53 | 1012.8 |
| 20260504005509 | 10 | 307 | 0.0 | 0.0 | 0.00 | 0.00 | 0.00 | 52 | 1012.9 |
| 20260504005004 | 10 | 307 | 0.0 | 0.0 | 0.00 | 0.00 | 0.00 | 50 | 1012.8 |
| 20260504004512 | 10 | 307 | 0.0 | 0.0 | 0.00 | 0.00 | 0.00 | 48 | 1012.7 |
| 20260504004004 | 10 | 307 | 0.0 | 0.0 | 0.00 | 0.00 | 0.00 | 48 | 1012.6 |
| 20260504003507 | 10 | 307 | 0.0 | 0.0 | 0.00 | 0.00 | 0.00 | 50 | 1012.6 |
| 20260504003027 | 10 | 307 | 0.0 | 0.0 | 0.00 | 0.00 | 0.00 | 50 | 1012.5 |
| 20260504002507 | 11 | 307 | 0.0 | 0.0 | 0.00 | 0.00 | 0.00 | 49 | 1012.5 |
| 20260504002008 | 11 | 307 | 0.0 | 1.6 | 0.00 | 0.00 | 0.00 | 45 | 1012.4 |
| 20260504001522 | 11 | 307 | 0.0 | 1.6 | 0.00 | 0.00 | 0.00 | 48 | 1012.5 |
| 20260504001007 | 11 | 307 | 0.0 | 1.6 | 0.00 | 0.00 | 0.00 | 44 | 1012.4 |
| 20260504000507 | 11 | 322 | 0.0 | 0.0 | 0.00 | 0.00 | 0.00 | 44 | 1012.4 |
| 20260504000024 | 12 | 322 | 0.0 | 1.6 | 0.00 | 0.00 | 0.00 | 44 | 1012.4 |
| 20260503235509 | 12 | 322 | 0.0 | 1.6 | 0.00 | 0.00 | 0.00 | 44 | 1012.4 |
| 20260503235010 | 12 | 287 | 0.0 | 1.6 | 0.00 | 0.00 | 0.00 | 44 | 1012.4 |
| 20260503234537 | 12 | 287 | 0.0 | 1.6 | 0.00 | 0.00 | 0.00 | 42 | 1012.3 |
| 20260503234011 | 13 | 296 | 0.0 | 3.2 | 0.00 | 0.00 | 0.00 | 40 | 1012.3 |
| 20260503233504 | 13 | 333 | 0.0 | 4.8 | 0.00 | 0.00 | 0.00 | 38 | 1012.3 |
| 20260503233004 | 13 | 241 | 0.0 | 4.8 | 0.00 | 0.00 | 0.00 | 39 | 1012.3 |
| 20260503232504 | 13 | 246 | 0.0 | 4.8 | 0.00 | 0.00 | 0.00 | 35 | 1012.2 |
| 20260503232004 | 14 | 115 | 0.0 | 6.4 | 0.00 | 0.00 | 0.00 | 38 | 1012.2 |
| 20260503231505 | 14 | 217 | 0.0 | 6.4 | 0.00 | 0.00 | 0.00 | 35 | 1012.2 |
| 20260503231005 | 14 | 105 | 0.0 | 4.8 | 0.00 | 0.00 | 0.00 | 36 | 1012.3 |
| 20260503230503 | 14 | 115 | 0.0 | 6.4 | 0.00 | 0.00 | 0.00 | 36 | 1012.3 |
| 20260503230005 | 14 | 120 | 0.0 | 6.4 | 0.00 | 0.00 | 0.00 | 35 | 1012.2 |
| 20260503225504 | 15 | 167 | 1.6 | 8.0 | 0.00 | 0.00 | 0.00 | 36 | 1012.2 |
| 20260503225005 | 15 | 45 | 0.0 | 9.7 | 0.00 | 0.00 | 0.00 | 34 | 1012.2 |
| 20260503224504 | 15 | 191 | 4.8 | 14.5 | 0.00 | 0.00 | 0.00 | 33 | 1012.1 |
| 20260503224004 | 15 | 50 | 3.2 | 14.5 | 0.00 | 0.00 | 0.00 | 33 | 1012.1 |
| 20260503223503 | 15 | 199 | 3.2 | 11.3 | 0.00 | 0.00 | 0.00 | 34 | 1012.1 |
| 20260503223007 | 15 | 261 | 4.8 | 11.3 | 0.00 | 0.00 | 0.00 | 33 | 1012.2 |
| 20260503222502 | 15 | 243 | 4.8 | 9.7 | 0.00 | 0.00 | 0.00 | 33 | 1012.1 |
| 20260503222006 | 15 | 2 | 3.2 | 12.9 | 0.00 | 0.00 | 0.00 | 36 | 1012.2 |
| 20260503221505 | 15 | 264 | 4.8 | 12.9 | 0.00 | 0.00 | 0.00 | 33 | 1012.1 |
| 20260503221004 | 15 | 297 | 1.6 | 9.7 | 0.00 | 0.00 | 0.00 | 33 | 1012.2 |
| 20260503220506 | 15 | 209 | 1.6 | 9.7 | 0.00 | 0.00 | 0.00 | 34 | 1012.2 |
| 20260503220004 | 15 | 281 | 0.0 | 11.3 | 0.00 | 0.00 | 0.00 | 34 | 1012.2 |
| 20260503215507 | 15 | 263 | 3.2 | 11.3 | 0.00 | 0.00 | 0.00 | 32 | 1012.2 |
| 20260503215004 | 15 | 45 | 6.4 | 11.3 | 0.00 | 0.00 | 0.00 | 31 | 1012.2 |
| 20260503214503 | 15 | 153 | 3.2 | 12.9 | 0.00 | 0.00 | 0.00 | 34 | 1012.1 |
| 20260503214004 | 15 | 44 | 3.2 | 12.9 | 0.00 | 0.00 | 0.00 | 31 | 1012.1 |
| 20260503213505 | 15 | 148 | 3.2 | 11.3 | 0.00 | 0.00 | 0.00 | 32 | 1012.1 |
| 20260503213006 | 16 | 4 | 6.4 | 11.3 | 0.00 | 0.00 | 0.00 | 29 | 1012.0 |
| 20260503212504 | 16 | 276 | 4.8 | 11.3 | 0.00 | 0.00 | 0.00 | 30 | 1012.0 |
| 20260503212004 | 16 | 165 | 1.6 | 9.7 | 0.00 | 0.00 | 0.00 | 34 | 1011.9 |
| 20260503211509 | 16 | 157 | 4.8 | 9.7 | 0.00 | 0.00 | 0.00 | 29 | 1012.0 |
| 20260503211004 | 16 | 237 | 3.2 | 6.4 | 0.00 | 0.00 | 0.00 | 34 | 1011.9 |
| 20260503210504 | 17 | 281 | 1.6 | 8.0 | 0.00 | 0.00 | 0.00 | 30 | 1011.9 |
| 20260503210006 | 16 | 88 | 1.6 | 9.7 | 0.00 | 0.00 | 0.00 | 32 | 1011.9 |
| 20260503205505 | 16 | 281 | 4.8 | 17.7 | 0.00 | 0.00 | 0.00 | 29 | 1011.9 |
| 20260503205005 | 16 | 229 | 1.6 | 17.7 | 0.00 | 0.00 | 0.00 | 30 | 1011.9 |
| 20260503204505 | 17 | 337 | 4.8 | 9.7 | 0.00 | 0.00 | 0.00 | 33 | 1012.0 |
| 20260503204006 | 16 | 235 | 3.2 | 14.5 | 0.00 | 0.00 | 0.00 | 33 | 1011.9 |
| 20260503203508 | 16 | 50 | 8.0 | 14.5 | 0.00 | 0.00 | 0.00 | 31 | 1012.0 |
| 20260503203012 | 16 | 35 | 3.2 | 14.5 | 0.00 | 0.00 | 0.00 | 30 | 1011.9 |
| 20260503202504 | 16 | 64 | 3.2 | 9.7 | 0.00 | 0.00 | 0.00 | 34 | 1011.9 |
| 20260503202005 | 16 | 89 | 3.2 | 9.7 | 0.00 | 0.00 | 0.00 | 33 | 1012.0 |
| 20260503201510 | 16 | 287 | 3.2 | 12.9 | 0.00 | 0.00 | 0.00 | 35 | 1012.1 |
| 20260503201007 | 16 | 43 | 4.8 | 12.9 | 0.00 | 0.00 | 0.00 | 31 | 1012.1 |
| 20260503200503 | 16 | 229 | 3.2 | 11.3 | 0.00 | 0.00 | 0.00 | 33 | 1012.1 |
| 20260503200007 | 16 | 146 | 3.2 | 9.7 | 0.00 | 0.00 | 0.00 | 36 | 1012.0 |
| 20260503195506 | 16 | 31 | 4.8 | 20.9 | 0.00 | 0.00 | 0.00 | 33 | 1012.0 |
| 20260503195006 | 16 | 142 | 1.6 | 20.9 | 0.00 | 0.00 | 0.00 | 31 | 1012.2 |
| 20260503194510 | 16 | 207 | 3.2 | 12.9 | 0.00 | 0.00 | 0.00 | 35 | 1012.4 |
| 20260503194004 | 15 | 227 | 3.2 | 14.5 | 0.00 | 0.00 | 0.00 | 34 | 1012.4 |
| 20260503193504 | 15 | 127 | 4.8 | 14.5 | 0.00 | 0.00 | 0.00 | 32 | 1012.4 |
| 20260503193010 | 15 | 135 | 3.2 | 14.5 | 0.00 | 0.00 | 0.00 | 32 | 1012.5 |
| 20260503192504 | 15 | 208 | 3.2 | 17.7 | 0.00 | 0.00 | 0.00 | 31 | 1012.5 |
| 20260503192008 | 15 | 261 | 6.4 | 24.1 | 0.00 | 0.00 | 0.00 | 35 | 1012.7 |
| 20260503191506 | 16 | 245 | 4.8 | 24.1 | 0.00 | 0.00 | 0.00 | 33 | 1012.5 |
| 20260503191010 | 15 | 208 | 3.2 | 11.3 | 0.00 | 0.00 | 0.00 | 33 | 1012.8 |
| 20260503190505 | 15 | 46 | 3.2 | 17.7 | 0.00 | 0.00 | 0.00 | 32 | 1012.8 |
| 20260503190008 | 15 | 33 | 9.7 | 17.7 | 0.00 | 0.00 | 0.00 | 30 | 1012.8 |
| 20260503185504 | 15 | 20 | 4.8 | 17.7 | 0.00 | 0.00 | 0.00 | 33 | 1012.8 |
| 20260503185007 | 15 | 94 | 1.6 | 16.1 | 0.00 | 0.00 | 0.00 | 35 | 1012.9 |
| 20260503184529 | 15 | 243 | 6.4 | 16.1 | 0.00 | 0.00 | 0.00 | 30 | 1013.1 |
| 20260503184008 | 15 | 85 | 3.2 | 9.7 | 0.00 | 0.00 | 0.00 | 31 | 1012.9 |
| 20260503183505 | 15 | 345 | 1.6 | 12.9 | 0.00 | 0.00 | 0.00 | 32 | 1013.0 |
| 20260503183009 | 15 | 269 | 3.2 | 12.9 | 0.00 | 0.00 | 0.00 | 32 | 1013.1 |
| 20260503182505 | 15 | 304 | 3.2 | 8.0 | 0.00 | 0.00 | 0.00 | 34 | 1013.1 |
| 20260503182009 | 15 | 263 | 4.8 | 8.0 | 0.00 | 0.00 | 0.00 | 31 | 1013.2 |
| 20260503181510 | 15 | 70 | 6.4 | 8.0 | 0.00 | 0.00 | 0.00 | 34 | 1013.3 |
| 20260503181006 | 15 | 203 | 3.2 | 6.4 | 0.00 | 0.00 | 0.00 | 32 | 1013.3 |
| 20260503180508 | 15 | 112 | 3.2 | 6.4 | 0.00 | 0.00 | 0.00 | 31 | 1013.4 |
| 20260503180018 | 15 | 153 | 1.6 | 16.1 | 0.00 | 0.00 | 0.00 | 36 | 1013.4 |
| 20260503175507 | 15 | 191 | 9.7 | 16.1 | 0.00 | 0.00 | 0.00 | 36 | 1013.5 |
| 20260503175008 | 15 | 212 | 3.2 | 12.9 | 0.00 | 0.00 | 0.00 | 30 | 1013.5 |
| 20260503174512 | 15 | 231 | 1.6 | 14.5 | 0.00 | 0.00 | 0.00 | 32 | 1013.5 |
| 20260503174008 | 15 | 233 | 0.0 | 14.5 | 0.00 | 0.00 | 0.00 | 38 | 1013.5 |
| 20260503173507 | 14 | 153 | 4.8 | 14.5 | 0.00 | 0.00 | 0.00 | 35 | 1013.6 |
| 20260503173014 | 14 | 144 | 4.8 | 14.5 | 0.00 | 0.00 | 0.00 | 35 | 1013.6 |
| 20260503172508 | 13 | 169 | 4.8 | 22.5 | 0.00 | 0.00 | 0.00 | 32 | 1013.7 |
| 20260503172007 | 13 | 124 | 4.8 | 22.5 | 0.00 | 0.00 | 0.00 | 34 | 1013.7 |
| 20260503171515 | 13 | 338 | 1.6 | 20.9 | 0.00 | 0.00 | 0.00 | 33 | 1013.9 |
| 20260503171006 | 13 | 58 | 4.8 | 27.4 | 0.00 | 0.00 | 0.00 | 33 | 1014.0 |
| 20260503170507 | 13 | 36 | 9.7 | 27.4 | 0.00 | 0.00 | 0.00 | 33 | 1014.1 |
| 20260503151008 | 11 | 250 | 6.4 | 17.7 | 0.00 | 0.00 | 0.00 | 36 | 1015.1 |
| 20260503150506 | 11 | 17 | 4.8 | 11.3 | 0.00 | 0.00 | 0.00 | 41 | 1015.1 |
| 20260503131005 | 8 | 91 | 1.6 | 12.9 | 0.00 | 0.00 | 0.00 | 50 | 1015.7 |
| 20260503130507 | 7 | 49 | 4.8 | 8.0 | 0.00 | 0.00 | 0.00 | 51 | 1015.8 |
| 20260503110509 | 3 | 165 | 0.0 | 1.6 | 0.00 | 0.00 | 0.00 | 69 | 1015.5 |
| 20260503090510 | 2 | 295 | 0.0 | 1.6 | 0.00 | 0.00 | 0.00 | 75 | 1014.6 |
| 20260503081513 | 2 | 277 | 1.6 | 6.4 | 0.00 | 0.00 | 0.00 | 75 | 1014.2 |
| 20260503081007 | 2 | 244 | 0.0 | 3.2 | 0.00 | 0.00 | 0.00 | 76 | 1014.2 |
| 20260503080507 | 2 | 281 | 0.0 | 1.6 | 0.00 | 0.00 | 0.00 | 77 | 1014.2 |
| 20260503072507 | 3 | 270 | 0.0 | 0.0 | 0.00 | 0.00 | 0.00 | 74 | 1014.0 |
| 20260503072010 | 3 | 270 | 0.0 | 0.0 | 0.00 | 0.00 | 0.00 | 74 | 1014.0 |
| 20260503071529 | 3 | 270 | 0.0 | 1.6 | 0.00 | 0.00 | 0.00 | 74 | 1014.0 |
| 20260503071007 | 3 | 270 | 0.0 | 1.6 | 0.00 | 0.00 | 0.00 | 74 | 1014.0 |
| 20260503070512 | 3 | 270 | 0.0 | 1.6 | 0.00 | 0.00 | 0.00 | 73 | 1013.9 |
| 20260503055006 | 5 | 79 | 0.0 | 1.6 | 0.00 | 0.08 | 0.00 | 69 | 1014.2 |
| 20260503054524 | 5 | 79 | 0.0 | 1.6 | 0.00 | 0.08 | 0.00 | 70 | 1014.2 |
| 20260503054006 | 5 | 79 | 0.0 | 1.6 | 0.00 | 0.10 | 0.00 | 69 | 1014.2 |